This is the latest recevied weather packets stored in our database for station/object KB1JL-13. If no packets are shown the sender has not sent any weather packets the latest 10 day(s).
| Time | Temp. | Humidity | Pressure | Rain* | Wind** | Luminosity | Snow |
|---|---|---|---|---|---|---|---|
| 1777382745 | 16.11° C | 52% | 1033.2 hPa | 0 mm | - | 348 W/m² | - |
| 1777382440 | 15.56° C | 55% | 1033.5 hPa | 0 mm | - | 401 W/m² | - |
| 1777382137 | 15° C | 55% | 1033.5 hPa | 0 mm | - | 424 W/m² | - |
| 1777381833 | 15° C | 56% | 1033.2 hPa | 0 mm | - | 241 W/m² | - |
| 1777381532 | 15° C | 59% | 1033.5 hPa | 0 mm | - | 294 W/m² | - |
| 1777381228 | 14.44° C | 58% | 1033.5 hPa | 0 mm | - | 198 W/m² | - |
| 1777380926 | 13.89° C | 59% | 1033.5 hPa | 0 mm | - | 196 W/m² | - |
| 1777380623 | 13.89° C | 60% | 1033.5 hPa | 0 mm | - | 117 W/m² | - |
| 1777380318 | 13.89° C | 59% | 1034 hPa | 0 mm | - | 129 W/m² | - |
| 1777380015 | 13.89° C | 60% | 1034 hPa | 0 mm | - | 219 W/m² | - |
| 1777379711 | 13.89° C | 61% | 1033.5 hPa | 0 mm | - | 224 W/m² | - |
| 1777379406 | 13.89° C | 61% | 1034 hPa | 0 mm | - | 206 W/m² | - |
| 1777379102 | 13.89° C | 63% | 1034 hPa | 0 mm | - | 193 W/m² | - |
| 1777378796 | 13.33° C | 64% | 1034.3 hPa | 0 mm | - | 254 W/m² | - |
| 1777378495 | 13.33° C | 66% | 1034.3 hPa | 0 mm | - | 204 W/m² | - |
| 1777378189 | 13.33° C | 65% | 1034 hPa | 0 mm | - | 165 W/m² | - |
| 1777377888 | 12.78° C | 64% | 1034.3 hPa | 0 mm | - | 218 W/m² | - |
| 1777377588 | 12.78° C | 63% | 1034 hPa | 0 mm | - | 210 W/m² | - |
| 1777377283 | 12.78° C | 63% | 1034 hPa | 0 mm | - | 200 W/m² | - |
| 1777376981 | 12.22° C | 65% | 1034 hPa | 0 mm | - | 178 W/m² | - |
| 1777376678 | 12.78° C | 67% | 1034 hPa | 0 mm | - | 165 W/m² | - |
| 1777376375 | 12.22° C | 73% | 1034 hPa | 0 mm | - | 141 W/m² | - |
| 1777376074 | 11.67° C | 71% | 1034 hPa | 0 mm | - | 128 W/m² | - |
| 1777375774 | 12.22° C | 73% | 1034.3 hPa | 0 mm | - | 120 W/m² | - |
| 1777375470 | 11.67° C | 77% | 1033.5 hPa | 0 mm | - | 67 W/m² | - |
* Rain latest hour (hover to see other rain measurements)
** Current wind speed in m/s (hover to see current wind gust speed)